Year,Month,Day,Hour,Minute,Value (Times are PST for temperature in C)
2017,07,31,00,00,16.20
2017,07,31,00,01,16.10
2017,07,31,00,02,16.10
2017,07,31,00,03,16.10
2017,07,31,00,04,16.10
2017,07,31,00,05,16.10
2017,07,31,00,06,16.10
2017,07,31,00,07,16.10
2017,07,31,00,08,16.10
2017,07,31,00,09,16.10
2017,07,31,00,10,16.10
2017,07,31,00,11,16.10
2017,07,31,00,12,16.10
2017,07,31,00,13,16.10
2017,07,31,00,14,16.00
2017,07,31,00,15,16.00
2017,07,31,00,16,16.00
2017,07,31,00,17,16.00
2017,07,31,00,18,16.00
2017,07,31,00,19,16.00
2017,07,31,00,20,15.90
2017,07,31,00,21,15.90
2017,07,31,00,22,15.90
2017,07,31,00,23,15.90
2017,07,31,00,24,15.90
2017,07,31,00,25,15.80
2017,07,31,00,26,15.80
2017,07,31,00,27,15.80
2017,07,31,00,28,15.80
2017,07,31,00,29,15.80
2017,07,31,00,30,15.80
2017,07,31,00,31,15.80
2017,07,31,00,32,15.80
2017,07,31,00,33,15.70
2017,07,31,00,34,15.70
2017,07,31,00,35,15.70
2017,07,31,00,36,15.60
2017,07,31,00,37,15.60
2017,07,31,00,38,15.60
2017,07,31,00,39,15.50
2017,07,31,00,40,15.50
2017,07,31,00,41,15.50
2017,07,31,00,42,15.60
2017,07,31,00,43,15.60
2017,07,31,00,44,15.60
2017,07,31,00,45,15.60
2017,07,31,00,46,15.60
2017,07,31,00,47,15.60
2017,07,31,00,48,15.60
2017,07,31,00,49,15.60
2017,07,31,00,50,15.50
2017,07,31,00,51,15.50
2017,07,31,00,52,15.50
2017,07,31,00,53,15.50
2017,07,31,00,54,15.40
2017,07,31,00,55,15.40
2017,07,31,00,56,15.40
2017,07,31,00,57,15.40
2017,07,31,00,58,15.40
2017,07,31,00,59,15.40
2017,07,31,01,00,15.40
2017,07,31,01,01,15.40
2017,07,31,01,02,15.40
2017,07,31,01,03,15.30
2017,07,31,01,04,15.30
2017,07,31,01,05,15.30
2017,07,31,01,06,15.30
2017,07,31,01,07,15.30
2017,07,31,01,08,15.30
2017,07,31,01,09,15.30
2017,07,31,01,10,15.30
2017,07,31,01,11,15.30
2017,07,31,01,12,15.30
2017,07,31,01,13,15.30
2017,07,31,01,14,15.20
2017,07,31,01,15,15.20
2017,07,31,01,16,15.20
2017,07,31,01,17,15.20
2017,07,31,01,18,15.20
2017,07,31,01,19,15.20
2017,07,31,01,20,15.10
2017,07,31,01,21,15.10
2017,07,31,01,22,15.10
2017,07,31,01,23,15.10
2017,07,31,01,24,15.10
2017,07,31,01,25,15.00
2017,07,31,01,26,15.00
2017,07,31,01,27,15.00
2017,07,31,01,28,15.00
2017,07,31,01,29,15.00
2017,07,31,01,30,15.00
2017,07,31,01,31,15.00
2017,07,31,01,32,15.10
2017,07,31,01,33,15.10
2017,07,31,01,34,15.10
2017,07,31,01,35,15.10
2017,07,31,01,36,15.20
2017,07,31,01,37,15.10
2017,07,31,01,38,15.10
2017,07,31,01,39,15.10
2017,07,31,01,40,15.10
2017,07,31,01,41,15.00
2017,07,31,01,42,15.00
2017,07,31,01,43,14.90
2017,07,31,01,44,14.90
2017,07,31,01,45,14.90
2017,07,31,01,46,14.80
2017,07,31,01,47,14.80
2017,07,31,01,48,14.80
2017,07,31,01,49,14.90
2017,07,31,01,50,14.90
2017,07,31,01,51,14.90
2017,07,31,01,52,14.90
2017,07,31,01,53,14.90
2017,07,31,01,54,14.90
2017,07,31,01,55,14.90
2017,07,31,01,56,14.90
2017,07,31,01,57,14.90
2017,07,31,01,58,14.80
2017,07,31,01,59,14.80
2017,07,31,02,00,14.80
2017,07,31,02,01,14.80
2017,07,31,02,02,14.80
2017,07,31,02,03,14.70
2017,07,31,02,04,14.70
2017,07,31,02,05,14.70
2017,07,31,02,06,14.70
2017,07,31,02,07,14.60
2017,07,31,02,08,14.60
2017,07,31,02,09,14.60
2017,07,31,02,10,14.60
2017,07,31,02,11,14.50
2017,07,31,02,12,14.50
2017,07,31,02,13,14.50
2017,07,31,02,14,14.40
2017,07,31,02,15,14.40
2017,07,31,02,16,14.40
2017,07,31,02,17,14.40
2017,07,31,02,18,14.30
2017,07,31,02,19,14.30
2017,07,31,02,20,14.30
2017,07,31,02,21,14.30
2017,07,31,02,22,14.30
2017,07,31,02,23,14.30
2017,07,31,02,24,14.20
2017,07,31,02,25,14.20
2017,07,31,02,26,14.20
2017,07,31,02,27,14.20
2017,07,31,02,28,14.20
2017,07,31,02,29,14.10
2017,07,31,02,30,14.10
2017,07,31,02,31,14.10
2017,07,31,02,32,14.10
2017,07,31,02,33,14.10
2017,07,31,02,34,14.10
2017,07,31,02,35,14.10
2017,07,31,02,36,14.10
2017,07,31,02,37,14.00
2017,07,31,02,38,14.00
2017,07,31,02,39,14.00
2017,07,31,02,40,14.00
2017,07,31,02,41,13.90
2017,07,31,02,42,13.90
2017,07,31,02,43,13.90
2017,07,31,02,44,13.90
2017,07,31,02,45,13.90
2017,07,31,02,46,13.90
2017,07,31,02,47,13.90
2017,07,31,02,48,13.90
2017,07,31,02,49,13.80
2017,07,31,02,50,13.80
2017,07,31,02,51,13.80
2017,07,31,02,52,13.80
2017,07,31,02,53,13.80
2017,07,31,02,54,13.80
2017,07,31,02,55,13.80
2017,07,31,02,56,13.80
2017,07,31,02,57,13.80
2017,07,31,02,58,13.80
2017,07,31,02,59,13.80
2017,07,31,03,00,13.80
2017,07,31,03,01,13.80
2017,07,31,03,02,13.80
2017,07,31,03,03,13.80
2017,07,31,03,04,13.80
2017,07,31,03,05,13.80
2017,07,31,03,06,13.70
2017,07,31,03,07,13.70
2017,07,31,03,08,13.70
2017,07,31,03,09,13.70
2017,07,31,03,10,13.70
2017,07,31,03,11,13.70
2017,07,31,03,12,13.70
2017,07,31,03,13,13.70
2017,07,31,03,14,13.70
2017,07,31,03,15,13.70
2017,07,31,03,16,13.70
2017,07,31,03,17,13.70
2017,07,31,03,18,13.70
2017,07,31,03,19,13.70
2017,07,31,03,20,13.70
2017,07,31,03,21,13.70
2017,07,31,03,22,13.70
2017,07,31,03,23,13.70
2017,07,31,03,24,13.70
2017,07,31,03,25,13.70
2017,07,31,03,26,13.70
2017,07,31,03,27,13.60
2017,07,31,03,28,13.60
2017,07,31,03,29,13.60
2017,07,31,03,30,13.60
2017,07,31,03,31,13.60
2017,07,31,03,32,13.60
2017,07,31,03,33,13.60
2017,07,31,03,34,13.60
2017,07,31,03,35,13.60
2017,07,31,03,36,13.50
2017,07,31,03,37,13.50
2017,07,31,03,38,13.50
2017,07,31,03,39,13.50
2017,07,31,03,40,13.40
2017,07,31,03,41,13.40
2017,07,31,03,42,13.40
2017,07,31,03,43,13.40
2017,07,31,03,44,13.40
2017,07,31,03,45,13.40
2017,07,31,03,46,13.40
2017,07,31,03,47,13.40
2017,07,31,03,48,13.40
2017,07,31,03,49,13.40
2017,07,31,03,50,13.40
2017,07,31,03,51,13.40
2017,07,31,03,52,13.40
2017,07,31,03,53,13.40
2017,07,31,03,54,13.40
2017,07,31,03,55,13.40
2017,07,31,03,56,13.40
2017,07,31,03,57,13.40
2017,07,31,03,58,13.40
2017,07,31,03,59,13.40
2017,07,31,04,00,13.40
2017,07,31,04,01,13.40
2017,07,31,04,02,13.40
2017,07,31,04,03,13.40
2017,07,31,04,04,13.30
2017,07,31,04,05,13.30
2017,07,31,04,06,13.30
2017,07,31,04,07,13.30
2017,07,31,04,08,13.30
2017,07,31,04,09,13.20
2017,07,31,04,10,13.20
2017,07,31,04,11,13.20
2017,07,31,04,12,13.10
2017,07,31,04,13,13.10
2017,07,31,04,14,13.10
2017,07,31,04,15,13.10
2017,07,31,04,16,13.10
2017,07,31,04,17,13.10
2017,07,31,04,18,13.10
2017,07,31,04,19,13.00
2017,07,31,04,20,13.00
2017,07,31,04,21,13.10
2017,07,31,04,22,13.10
2017,07,31,04,23,13.10
2017,07,31,04,24,13.00
2017,07,31,04,25,13.10
2017,07,31,04,26,13.10
2017,07,31,04,27,13.10
2017,07,31,04,28,13.10
2017,07,31,04,29,13.10
2017,07,31,04,30,13.10
2017,07,31,04,31,13.10
2017,07,31,04,32,13.10
2017,07,31,04,33,13.10
2017,07,31,04,34,13.20
2017,07,31,04,35,13.20
2017,07,31,04,36,13.20
2017,07,31,04,37,13.20
2017,07,31,04,38,13.20
2017,07,31,04,39,13.20
2017,07,31,04,40,13.30
2017,07,31,04,41,13.30
2017,07,31,04,42,13.30
2017,07,31,04,43,13.30
2017,07,31,04,44,13.40
2017,07,31,04,45,13.40
2017,07,31,04,46,13.30
2017,07,31,04,47,13.30
2017,07,31,04,48,13.30
2017,07,31,04,49,13.30
2017,07,31,04,50,13.20
2017,07,31,04,51,13.20
2017,07,31,04,52,13.10
2017,07,31,04,53,13.10
2017,07,31,04,54,13.10
2017,07,31,04,55,13.00
2017,07,31,04,56,13.00
2017,07,31,04,57,12.90
2017,07,31,04,58,12.90
2017,07,31,04,59,12.90
2017,07,31,05,00,12.90
2017,07,31,05,01,12.80
2017,07,31,05,02,12.80
2017,07,31,05,03,12.80
2017,07,31,05,04,12.80
2017,07,31,05,05,12.80
2017,07,31,05,06,12.70
2017,07,31,05,07,12.70
2017,07,31,05,08,12.70
2017,07,31,05,09,12.70
2017,07,31,05,10,12.60
2017,07,31,05,11,12.60
2017,07,31,05,12,12.60
2017,07,31,05,13,12.60
2017,07,31,05,14,12.60
2017,07,31,05,15,12.60
2017,07,31,05,16,12.60
2017,07,31,05,17,12.50
2017,07,31,05,18,12.50
2017,07,31,05,19,12.50
2017,07,31,05,20,12.50
2017,07,31,05,21,12.50
2017,07,31,05,22,12.50
2017,07,31,05,23,12.50
2017,07,31,05,24,12.40
2017,07,31,05,25,12.40
2017,07,31,05,26,12.50
2017,07,31,05,27,12.50
2017,07,31,05,28,12.50
2017,07,31,05,29,12.50
2017,07,31,05,30,12.50
2017,07,31,05,31,12.50
2017,07,31,05,32,12.50
2017,07,31,05,33,12.50
2017,07,31,05,34,12.50
2017,07,31,05,35,12.50
2017,07,31,05,36,12.50
2017,07,31,05,37,12.50
2017,07,31,05,38,12.50
2017,07,31,05,39,12.50
2017,07,31,05,40,12.50
2017,07,31,05,41,12.50
2017,07,31,05,42,12.40
2017,07,31,05,43,12.40
2017,07,31,05,44,12.40
2017,07,31,05,45,12.40
2017,07,31,05,46,12.40
2017,07,31,05,47,12.40
2017,07,31,05,48,12.40
2017,07,31,05,49,12.40
2017,07,31,05,50,12.30
2017,07,31,05,51,12.30
2017,07,31,05,52,12.30
2017,07,31,05,53,12.30
2017,07,31,05,54,12.30
2017,07,31,05,55,12.30
2017,07,31,05,56,12.30
2017,07,31,05,57,12.30
2017,07,31,05,58,12.30
2017,07,31,05,59,12.30
2017,07,31,06,00,12.30
2017,07,31,06,01,12.30
2017,07,31,06,02,12.30
2017,07,31,06,03,12.30
2017,07,31,06,04,12.30
2017,07,31,06,05,12.30
2017,07,31,06,06,12.30
2017,07,31,06,07,12.40
2017,07,31,06,08,12.40
2017,07,31,06,09,12.40
2017,07,31,06,10,12.50
2017,07,31,06,11,12.50
2017,07,31,06,12,12.50
2017,07,31,06,13,12.50
2017,07,31,06,14,12.50
2017,07,31,06,15,12.50
2017,07,31,06,16,12.50
2017,07,31,06,17,12.50
2017,07,31,06,18,12.50
2017,07,31,06,19,12.60
2017,07,31,06,20,12.60
2017,07,31,06,21,12.60
2017,07,31,06,22,12.60
2017,07,31,06,23,12.60
2017,07,31,06,24,12.60
2017,07,31,06,25,12.70
2017,07,31,06,26,12.70
2017,07,31,06,27,12.70
2017,07,31,06,28,12.70
2017,07,31,06,29,12.70
2017,07,31,06,30,12.70
2017,07,31,06,31,12.70
2017,07,31,06,32,12.80
2017,07,31,06,33,12.80
2017,07,31,06,34,12.80
2017,07,31,06,35,12.80
2017,07,31,06,36,12.80
2017,07,31,06,37,12.90
2017,07,31,06,38,12.90
2017,07,31,06,39,12.90
2017,07,31,06,40,13.00
2017,07,31,06,41,13.00
2017,07,31,06,42,13.10
2017,07,31,06,43,13.10
2017,07,31,06,44,13.10
2017,07,31,06,45,13.10
2017,07,31,06,46,13.10
2017,07,31,06,47,13.10
2017,07,31,06,48,13.10
2017,07,31,06,49,13.10
2017,07,31,06,50,13.10
2017,07,31,06,51,13.10
2017,07,31,06,52,13.10
2017,07,31,06,53,13.10
2017,07,31,06,54,13.10
2017,07,31,06,55,13.10
2017,07,31,06,56,13.20
2017,07,31,06,57,13.20
2017,07,31,06,58,13.20
2017,07,31,06,59,13.30
2017,07,31,07,00,13.30
2017,07,31,07,01,13.40
2017,07,31,07,02,13.50
2017,07,31,07,03,13.50
2017,07,31,07,04,13.60
2017,07,31,07,05,13.60
2017,07,31,07,06,13.70
2017,07,31,07,07,13.80
2017,07,31,07,08,13.80
2017,07,31,07,09,13.90
2017,07,31,07,10,14.00
2017,07,31,07,11,14.00
2017,07,31,07,12,14.10
2017,07,31,07,13,14.10
2017,07,31,07,14,14.10
2017,07,31,07,15,14.20
2017,07,31,07,16,14.20
2017,07,31,07,17,14.20
2017,07,31,07,18,14.30
2017,07,31,07,19,14.30
2017,07,31,07,20,14.40
2017,07,31,07,21,14.40
2017,07,31,07,22,14.50
2017,07,31,07,23,14.50
2017,07,31,07,24,14.60
2017,07,31,07,25,14.60
2017,07,31,07,26,14.70
2017,07,31,07,27,14.70
2017,07,31,07,28,14.80
2017,07,31,07,29,14.90
2017,07,31,07,30,14.90
2017,07,31,07,31,15.00
2017,07,31,07,32,15.10
2017,07,31,07,33,15.10
2017,07,31,07,34,15.20
2017,07,31,07,35,15.30
2017,07,31,07,36,15.30
2017,07,31,07,37,15.40
2017,07,31,07,38,15.50
2017,07,31,07,39,15.60
2017,07,31,07,40,15.70
2017,07,31,07,41,15.80
2017,07,31,07,42,15.90
2017,07,31,07,43,16.00
2017,07,31,07,44,16.10
2017,07,31,07,45,16.10
2017,07,31,07,46,16.20
2017,07,31,07,47,16.30
2017,07,31,07,48,16.40
2017,07,31,07,49,16.50
2017,07,31,07,50,16.50
2017,07,31,07,51,16.60
2017,07,31,07,52,16.70
2017,07,31,07,53,16.80
2017,07,31,07,54,16.90
2017,07,31,07,55,17.00
2017,07,31,07,56,17.10
2017,07,31,07,57,17.30
2017,07,31,07,58,17.40
2017,07,31,07,59,17.50
2017,07,31,08,00,17.60
2017,07,31,08,01,17.70
2017,07,31,08,02,17.80
2017,07,31,08,03,17.90
2017,07,31,08,04,17.90
2017,07,31,08,05,18.00
2017,07,31,08,06,18.10
2017,07,31,08,07,18.10
2017,07,31,08,08,18.20
2017,07,31,08,09,18.20
2017,07,31,08,10,18.30
2017,07,31,08,11,18.30
2017,07,31,08,12,18.40
2017,07,31,08,13,18.40
2017,07,31,08,14,18.50
2017,07,31,08,15,18.50
2017,07,31,08,16,18.50
2017,07,31,08,17,18.60
2017,07,31,08,18,18.60
2017,07,31,08,19,18.60
2017,07,31,08,20,18.70
2017,07,31,08,21,18.70
2017,07,31,08,22,18.70
2017,07,31,08,23,18.70
2017,07,31,08,24,18.70
2017,07,31,08,25,18.70
2017,07,31,08,26,18.70
2017,07,31,08,27,18.80
2017,07,31,08,28,18.80
2017,07,31,08,29,18.80
2017,07,31,08,30,18.80
2017,07,31,08,31,18.80
2017,07,31,08,32,18.90
2017,07,31,08,33,18.90
2017,07,31,08,34,18.90
2017,07,31,08,35,18.90
2017,07,31,08,36,19.00
2017,07,31,08,37,19.00
2017,07,31,08,38,19.10
2017,07,31,08,39,19.10
2017,07,31,08,40,19.20
2017,07,31,08,41,19.20
2017,07,31,08,42,19.30
2017,07,31,08,43,19.40
2017,07,31,08,44,19.40
2017,07,31,08,45,19.40
2017,07,31,08,46,19.40
2017,07,31,08,47,19.40
2017,07,31,08,48,19.40
2017,07,31,08,49,19.40
2017,07,31,08,50,19.40
2017,07,31,08,51,19.40
2017,07,31,08,52,19.30
2017,07,31,08,53,19.20
2017,07,31,08,54,19.20
2017,07,31,08,55,19.10
2017,07,31,08,56,19.10
2017,07,31,08,57,19.10
2017,07,31,08,58,19.10
2017,07,31,08,59,19.20
2017,07,31,09,00,19.30
2017,07,31,09,01,19.40
2017,07,31,09,02,19.40
2017,07,31,09,03,19.40
2017,07,31,09,04,19.40
2017,07,31,09,05,19.40
2017,07,31,09,06,19.40
2017,07,31,09,07,19.40
2017,07,31,09,08,19.40
2017,07,31,09,09,19.50
2017,07,31,09,10,19.50
2017,07,31,09,11,19.60
2017,07,31,09,12,19.70
2017,07,31,09,13,19.70
2017,07,31,09,14,19.80
2017,07,31,09,15,19.80
2017,07,31,09,16,19.80
2017,07,31,09,17,19.90
2017,07,31,09,18,19.90
2017,07,31,09,19,19.90
2017,07,31,09,20,20.00
2017,07,31,09,21,20.10
2017,07,31,09,22,20.10
2017,07,31,09,23,20.10
2017,07,31,09,24,20.10
2017,07,31,09,25,20.10
2017,07,31,09,26,20.10
2017,07,31,09,27,20.10
2017,07,31,09,28,20.10
2017,07,31,09,29,20.10
2017,07,31,09,30,20.10
2017,07,31,09,31,20.10
2017,07,31,09,32,20.10
2017,07,31,09,33,20.10
2017,07,31,09,34,20.20
2017,07,31,09,35,20.20
2017,07,31,09,36,20.20
2017,07,31,09,37,20.20
2017,07,31,09,38,20.30
2017,07,31,09,39,20.30
2017,07,31,09,40,20.40
2017,07,31,09,41,20.40
2017,07,31,09,42,20.50
2017,07,31,09,43,20.50
2017,07,31,09,44,20.60
2017,07,31,09,45,20.50
2017,07,31,09,46,20.50
2017,07,31,09,47,20.40
2017,07,31,09,48,20.40
2017,07,31,09,49,20.40
2017,07,31,09,50,20.40
2017,07,31,09,51,20.40
2017,07,31,09,52,20.40
2017,07,31,09,53,20.40
2017,07,31,09,54,20.40
2017,07,31,09,55,20.40
2017,07,31,09,56,20.40
2017,07,31,09,57,20.50
2017,07,31,09,58,20.50
2017,07,31,09,59,20.60
2017,07,31,10,00,20.70
2017,07,31,10,01,20.70
2017,07,31,10,02,20.80
2017,07,31,10,03,20.80
2017,07,31,10,04,20.80
2017,07,31,10,05,20.90
2017,07,31,10,06,20.90
2017,07,31,10,07,20.90
2017,07,31,10,08,20.90
2017,07,31,10,09,20.90
2017,07,31,10,10,20.90
2017,07,31,10,11,20.90
2017,07,31,10,12,21.00
2017,07,31,10,13,21.00
2017,07,31,10,14,21.10
2017,07,31,10,15,21.10
2017,07,31,10,16,21.20
2017,07,31,10,17,21.20
2017,07,31,10,18,21.30
2017,07,31,10,19,21.30
2017,07,31,10,20,21.40
2017,07,31,10,21,21.50
2017,07,31,10,22,21.50
2017,07,31,10,23,21.60
2017,07,31,10,24,21.60
2017,07,31,10,25,21.60
2017,07,31,10,26,21.60
2017,07,31,10,27,21.60
2017,07,31,10,28,21.60
2017,07,31,10,29,21.60
2017,07,31,10,30,21.60
2017,07,31,10,31,21.60
2017,07,31,10,32,21.60
2017,07,31,10,33,21.60
2017,07,31,10,34,21.60
2017,07,31,10,35,21.60
2017,07,31,10,36,21.60
2017,07,31,10,37,21.60
2017,07,31,10,38,21.60
2017,07,31,10,39,21.70
2017,07,31,10,40,21.70
2017,07,31,10,41,21.70
2017,07,31,10,42,21.70
2017,07,31,10,43,21.70
2017,07,31,10,44,21.70
2017,07,31,10,45,21.70
2017,07,31,10,46,21.70
2017,07,31,10,47,21.70
2017,07,31,10,48,21.70
2017,07,31,10,49,21.70
2017,07,31,10,50,21.70
2017,07,31,10,51,21.70
2017,07,31,10,52,21.70
2017,07,31,10,53,21.80
2017,07,31,10,54,21.80
2017,07,31,10,55,21.80
2017,07,31,10,56,21.80
2017,07,31,10,57,21.80
2017,07,31,10,58,21.80
2017,07,31,10,59,21.80
2017,07,31,11,00,21.80
2017,07,31,11,01,21.80
2017,07,31,11,02,21.80
2017,07,31,11,03,21.80
2017,07,31,11,04,21.90
2017,07,31,11,05,21.90
2017,07,31,11,06,22.00
2017,07,31,11,07,22.00
2017,07,31,11,08,22.10
2017,07,31,11,09,22.20
2017,07,31,11,10,22.30
2017,07,31,11,11,22.30
2017,07,31,11,12,22.40
2017,07,31,11,13,22.40
2017,07,31,11,14,22.40
2017,07,31,11,15,22.50
2017,07,31,11,16,22.60
2017,07,31,11,17,22.70
2017,07,31,11,18,22.80
2017,07,31,11,19,22.80
2017,07,31,11,20,22.80
2017,07,31,11,21,22.70
2017,07,31,11,22,22.60
2017,07,31,11,23,22.60
2017,07,31,11,24,22.60
2017,07,31,11,25,22.60
2017,07,31,11,26,22.60
2017,07,31,11,27,22.70
2017,07,31,11,28,22.80
2017,07,31,11,29,22.90
2017,07,31,11,30,23.00
2017,07,31,11,31,23.10
2017,07,31,11,32,23.10
2017,07,31,11,33,23.10
2017,07,31,11,34,23.10
2017,07,31,11,35,23.00
2017,07,31,11,36,23.00
2017,07,31,11,37,22.90
2017,07,31,11,38,22.80
2017,07,31,11,39,22.80
2017,07,31,11,40,22.70
2017,07,31,11,41,22.70
2017,07,31,11,42,22.70
2017,07,31,11,43,22.70
2017,07,31,11,44,22.80
2017,07,31,11,45,22.80
2017,07,31,11,46,23.00
2017,07,31,11,47,23.10
2017,07,31,11,48,23.10
2017,07,31,11,49,23.20
2017,07,31,11,50,23.30
2017,07,31,11,51,23.30
2017,07,31,11,52,23.40
2017,07,31,11,53,23.40
2017,07,31,11,54,23.50
2017,07,31,11,55,23.60
2017,07,31,11,56,23.70
2017,07,31,11,57,23.80
2017,07,31,11,58,23.80
2017,07,31,11,59,23.90
2017,07,31,12,00,23.90
2017,07,31,12,01,24.00
2017,07,31,12,02,24.10
2017,07,31,12,03,24.10
2017,07,31,12,04,24.10
2017,07,31,12,05,24.10
2017,07,31,12,06,24.20
2017,07,31,12,07,24.20
2017,07,31,12,08,24.30
2017,07,31,12,09,24.30
2017,07,31,12,10,24.20
2017,07,31,12,11,24.20
2017,07,31,12,12,24.20
2017,07,31,12,13,24.20
2017,07,31,12,14,24.20
2017,07,31,12,15,24.20
2017,07,31,12,16,24.30
2017,07,31,12,17,24.30
2017,07,31,12,18,24.30
2017,07,31,12,19,24.40
2017,07,31,12,20,24.40
2017,07,31,12,21,24.40
2017,07,31,12,22,24.40
2017,07,31,12,23,24.40
2017,07,31,12,24,24.50
2017,07,31,12,25,24.50
2017,07,31,12,26,24.50
2017,07,31,12,27,24.50
2017,07,31,12,28,24.50
2017,07,31,12,29,24.50
2017,07,31,12,30,24.50
2017,07,31,12,31,24.50
2017,07,31,12,32,24.60
2017,07,31,12,33,24.70
2017,07,31,12,34,24.70
2017,07,31,12,35,24.60
2017,07,31,12,36,24.60
2017,07,31,12,37,24.60
2017,07,31,12,38,24.50
2017,07,31,12,39,24.60
2017,07,31,12,40,24.60
2017,07,31,12,41,24.60
2017,07,31,12,42,24.70
2017,07,31,12,43,24.70
2017,07,31,12,44,24.80
2017,07,31,12,45,24.90
2017,07,31,12,46,25.00
2017,07,31,12,47,25.10
2017,07,31,12,48,25.10
2017,07,31,12,49,25.00
2017,07,31,12,50,25.00
2017,07,31,12,51,25.00
2017,07,31,12,52,25.00
2017,07,31,12,53,25.10
2017,07,31,12,54,25.20
2017,07,31,12,55,25.30
2017,07,31,12,56,25.30
2017,07,31,12,57,25.30
2017,07,31,12,58,25.30
2017,07,31,12,59,25.30
2017,07,31,13,00,25.30
2017,07,31,13,01,25.30
2017,07,31,13,02,25.30
2017,07,31,13,03,25.30
2017,07,31,13,04,25.40
2017,07,31,13,05,25.40
2017,07,31,13,06,25.40
2017,07,31,13,07,25.50
2017,07,31,13,08,25.50
2017,07,31,13,09,25.40
2017,07,31,13,10,25.40
2017,07,31,13,11,25.30
2017,07,31,13,12,25.30
2017,07,31,13,13,25.20
2017,07,31,13,14,25.20
2017,07,31,13,15,25.20
2017,07,31,13,16,25.20
2017,07,31,13,17,25.10
2017,07,31,13,18,25.10
2017,07,31,13,19,25.10
2017,07,31,13,20,25.10
2017,07,31,13,21,25.10
2017,07,31,13,22,25.10
2017,07,31,13,23,25.20
2017,07,31,13,24,25.20
2017,07,31,13,25,25.30
2017,07,31,13,26,25.30
2017,07,31,13,27,25.40
2017,07,31,13,28,25.40
2017,07,31,13,29,25.40
2017,07,31,13,30,25.40
2017,07,31,13,31,25.40
2017,07,31,13,32,25.40
2017,07,31,13,33,25.40
2017,07,31,13,34,25.40
2017,07,31,13,35,25.50
2017,07,31,13,36,25.60
2017,07,31,13,37,25.60
2017,07,31,13,38,25.70
2017,07,31,13,39,25.70
2017,07,31,13,40,25.70
2017,07,31,13,41,25.80
2017,07,31,13,42,25.80
2017,07,31,13,43,25.90
2017,07,31,13,44,25.90
2017,07,31,13,45,25.90
2017,07,31,13,46,26.00
2017,07,31,13,47,26.00
2017,07,31,13,48,26.00
2017,07,31,13,49,26.10
2017,07,31,13,50,26.00
2017,07,31,13,51,26.00
2017,07,31,13,52,25.90
2017,07,31,13,53,25.90
2017,07,31,13,54,25.90
2017,07,31,13,55,25.90
2017,07,31,13,56,25.90
2017,07,31,13,57,25.90
2017,07,31,13,58,25.90
2017,07,31,13,59,25.90
2017,07,31,14,00,25.80
2017,07,31,14,01,25.80
2017,07,31,14,02,25.80
2017,07,31,14,03,25.80
2017,07,31,14,04,25.80
2017,07,31,14,05,25.80
2017,07,31,14,06,25.70
2017,07,31,14,07,25.70
2017,07,31,14,08,25.70
2017,07,31,14,09,25.80
2017,07,31,14,10,25.90
2017,07,31,14,11,26.00
2017,07,31,14,12,26.10
2017,07,31,14,13,26.20
2017,07,31,14,14,26.30
2017,07,31,14,15,26.30
2017,07,31,14,16,26.40
2017,07,31,14,17,26.40
2017,07,31,14,18,26.40
2017,07,31,14,19,26.30
2017,07,31,14,20,26.30
2017,07,31,14,21,26.30
2017,07,31,14,22,26.20
2017,07,31,14,23,26.20
2017,07,31,14,24,26.30
2017,07,31,14,25,26.30
2017,07,31,14,26,26.30
2017,07,31,14,27,26.40
2017,07,31,14,28,26.40
2017,07,31,14,29,26.40
2017,07,31,14,30,26.50
2017,07,31,14,31,26.50
2017,07,31,14,32,26.60
2017,07,31,14,33,26.60
2017,07,31,14,34,26.60
2017,07,31,14,35,26.60
2017,07,31,14,36,26.60
2017,07,31,14,37,26.60
2017,07,31,14,38,26.60
2017,07,31,14,39,26.60
2017,07,31,14,40,26.70
2017,07,31,14,41,26.70
2017,07,31,14,42,26.60
2017,07,31,14,43,26.60
2017,07,31,14,44,26.60
2017,07,31,14,45,26.60
2017,07,31,14,46,26.60
2017,07,31,14,47,26.60
2017,07,31,14,48,26.60
2017,07,31,14,49,26.60
2017,07,31,14,50,26.70
2017,07,31,14,51,26.70
2017,07,31,14,52,26.80
2017,07,31,14,53,26.80
2017,07,31,14,54,26.90
2017,07,31,14,55,26.90
2017,07,31,14,56,26.90
2017,07,31,14,57,26.90
2017,07,31,14,58,26.90
2017,07,31,14,59,26.80
2017,07,31,15,00,26.90
2017,07,31,15,01,26.90
2017,07,31,15,02,26.90
2017,07,31,15,03,26.90
2017,07,31,15,04,26.90
2017,07,31,15,05,27.00
2017,07,31,15,06,27.00
2017,07,31,15,07,27.10
2017,07,31,15,08,27.10
2017,07,31,15,09,27.10
2017,07,31,15,10,27.20
2017,07,31,15,11,27.20
2017,07,31,15,12,27.20
2017,07,31,15,13,27.20
2017,07,31,15,14,27.20
2017,07,31,15,15,27.20
2017,07,31,15,16,27.10
2017,07,31,15,17,27.10
2017,07,31,15,18,27.10
2017,07,31,15,19,27.10
2017,07,31,15,20,27.10
2017,07,31,15,21,27.10
2017,07,31,15,22,27.10
2017,07,31,15,23,27.10
2017,07,31,15,24,27.20
2017,07,31,15,25,27.20
2017,07,31,15,26,27.30
2017,07,31,15,27,27.30
2017,07,31,15,28,27.30
2017,07,31,15,29,27.30
2017,07,31,15,30,27.40
2017,07,31,15,31,27.40
2017,07,31,15,32,27.50
2017,07,31,15,33,27.60
2017,07,31,15,34,27.70
2017,07,31,15,35,27.70
2017,07,31,15,36,27.70
2017,07,31,15,37,27.70
2017,07,31,15,38,27.80
2017,07,31,15,39,27.80
2017,07,31,15,40,27.80
2017,07,31,15,41,27.80
2017,07,31,15,42,27.80
2017,07,31,15,43,27.90
2017,07,31,15,44,27.90
2017,07,31,15,45,28.00
2017,07,31,15,46,28.00
2017,07,31,15,47,28.10
2017,07,31,15,48,28.20
2017,07,31,15,49,28.20
2017,07,31,15,50,28.30
2017,07,31,15,51,28.30
2017,07,31,15,52,28.30
2017,07,31,15,53,28.20
2017,07,31,15,54,28.10
2017,07,31,15,55,28.00
2017,07,31,15,56,27.80
2017,07,31,15,57,27.80
2017,07,31,15,58,27.80
2017,07,31,15,59,27.90
2017,07,31,16,00,27.90
2017,07,31,16,01,27.90
2017,07,31,16,02,27.90
2017,07,31,16,03,28.00
2017,07,31,16,04,28.00
2017,07,31,16,05,28.00
2017,07,31,16,06,28.00
2017,07,31,16,07,28.00
2017,07,31,16,08,27.90
2017,07,31,16,09,27.90
2017,07,31,16,10,27.90
2017,07,31,16,11,27.80
2017,07,31,16,12,27.80
2017,07,31,16,13,27.80
2017,07,31,16,14,27.80
2017,07,31,16,15,27.80
2017,07,31,16,16,27.80
2017,07,31,16,17,27.80
2017,07,31,16,18,27.80
2017,07,31,16,19,27.80
2017,07,31,16,20,27.90
2017,07,31,16,21,27.90
2017,07,31,16,22,28.00
2017,07,31,16,23,28.00
2017,07,31,16,24,28.10
2017,07,31,16,25,28.10
2017,07,31,16,26,28.10
2017,07,31,16,27,28.10
2017,07,31,16,28,28.20
2017,07,31,16,29,28.20
2017,07,31,16,30,28.20
2017,07,31,16,31,28.20
2017,07,31,16,32,28.30
2017,07,31,16,33,28.20
2017,07,31,16,34,28.20
2017,07,31,16,35,28.20
2017,07,31,16,36,28.20
2017,07,31,16,37,28.20
2017,07,31,16,38,28.20
2017,07,31,16,39,28.20
2017,07,31,16,40,28.30
2017,07,31,16,41,28.30
2017,07,31,16,42,28.30
2017,07,31,16,43,28.30
2017,07,31,16,44,28.30
2017,07,31,16,45,28.30
2017,07,31,16,46,28.30
2017,07,31,16,47,28.30
2017,07,31,16,48,28.30
2017,07,31,16,49,28.30
2017,07,31,16,50,28.40
2017,07,31,16,51,28.40
2017,07,31,16,52,28.40
2017,07,31,16,53,28.40
2017,07,31,16,54,28.40
2017,07,31,16,55,28.40
2017,07,31,16,56,28.40
2017,07,31,16,57,28.40
2017,07,31,16,58,28.40
2017,07,31,16,59,28.40
2017,07,31,17,00,28.30
2017,07,31,17,01,28.20
2017,07,31,17,02,28.10
2017,07,31,17,03,28.00
2017,07,31,17,04,28.00
2017,07,31,17,05,27.90
2017,07,31,17,06,27.90
2017,07,31,17,07,27.90
2017,07,31,17,08,27.90
2017,07,31,17,09,28.00
2017,07,31,17,10,28.00
2017,07,31,17,11,28.10
2017,07,31,17,12,28.10
2017,07,31,17,13,28.20
2017,07,31,17,14,28.20
2017,07,31,17,15,28.20
2017,07,31,17,16,28.10
2017,07,31,17,17,28.10
2017,07,31,17,18,28.10
2017,07,31,17,19,28.10